Vertical_Velocity
-1 -2 -2 -2 -2 -2 -3 -3 -2 -2 -3 -3 -3 -4 -4 -4 -4 -4 -4 -4 -3 -2 -2 -3 -3 -3 -2 0 1 1 -0 -1 -0 0 1 1 2 3 4 5 7 8 8 6 5 4 3 2 5 5 4 2 1 0 -0 -0 -1 -2 -2 0 0 -0 -1 -0 -1 -0 1 2 3
-0 -1 -1 -2 -2 -2 -3 -3 -2 -2 -2 -3 -3 -4 -4 -4 -4 -4 -3 -2 -1 -1 -2 -3 -2 -2 -1 -1 1 1 0 -2 -3 -3 -2 -2 1 4 6 8 9 11 11 9 7 5 3 2 4 4 2 -0 1 -0 -1 -2 -1 -1 -1 0 1 1 1 0 -1 -0 1 1 2
-1 -1 -1 -1 -1 -1 -2 -2 -2 -2 -2 -3 -3 -3 -3 -2 -2 -2 -2 -1 -1 -1 -1 -2 -2 -2 -2 -2 1 2 2 -0 -3 -4 -3 -1 1 3 6 9 9 10 11 10 8 5 2 1 2 1 -0 -2 -2 -2 -2 -3 -1 0 1 2 3 3 2 0 -0 0 0 1 1
-2 -2 -1 -1 -1 -1 -2 -2 -2 -2 -3 -3 -3 -3 -2 -2 -2 -2 -2 -2 -1 -1 -0 -0 -2 -2 -1 0 1 2 2 2 -1 -2 -2 -0 1 2 4 7 8 9 9 9 7 4 2 -0 0 0 -0 -1 -1 -2 -2 -2 0 2 4 3 3 3 2 0 0 1 2 1 2
-1 -2 -2 -2 -2 -2 -2 -2 -2 -2 -2 -2 -2 -2 -2 -1 -1 -1 -1 -1 -1 -1 -0 -1 0 1 1 3 2 0 -1 0 -0 -1 -1 -0 1 2 2 3 6 8 9 9 8 4 1 -0 0 1 1 0 0 -0 -0 0 2 3 3 3 2 1 1 1 1 2 2 2 2
-1 -1 -1 -1 -2 -2 -2 -2 -2 -2 -2 -2 -2 -1 -1 -0 -0 0 1 1 -1 -2 -2 -1 2 2 3 3 0 -3 -4 -2 -1 0 1 0 1 1 0 0 3 5 8 9 6 3 1 0 1 1 0 -1 -1 -0 0 1 1 1 1 1 2 2 2 3 2 2 2 3 3
-1 -1 -0 -0 -1 -1 -1 -2 -2 -2 -2 -2 -2 -1 -1 -0 -0 0 1 1 -3 -4 -3 -1 1 2 2 1 -3 -5 -5 -4 -2 -0 0 0 1 1 1 1 1 3 6 7 4 3 2 2 1 0 -0 -0 0 0 1 1 1 1 1 2 3 3 3 2 2 2 3 3 4
-1 -1 -1 -1 -1 -1 -2 -2 -2 -2 -1 -2 -2 -1 -1 -1 -1 -0 -0 -2 -3 -2 -2 -2 1 3 3 1 -2 -5 -5 -4 -3 -2 -2 -1 -1 -0 0 0 -1 3 6 7 4 4 4 3 1 0 -0 -0 1 1 2 2 2 2 2 3 3 4 4 3 3 3 4 4 5
-1 -0 -1 -1 -1 -2 -2 -2 -2 -2 -1 -1 -1 -1 -1 -1 -1 -1 -1 -3 -2 -1 -1 -2 -0 2 3 2 -1 -3 -5 -3 -3 -2 -2 -1 -2 -2 -1 -2 -2 2 6 6 5 4 4 2 1 1 1 2 2 3 3 3 3 3 3 3 3 4 4 3 3 3 3 4 4
-0 -0 -0 -1 -1 -1 -2 -2 -2 -2 -2 -2 -2 -1 -1 -0 -0 -1 -1 -1 -1 -1 -1 -2 -1 -0 1 1 -1 -2 -3 -2 -2 -2 -2 -1 -1 -1 -1 -2 -2 3 7 6 5 4 3 2 2 2 2 1 1 2 2 2 2 2 3 3 3 3 3 3 3 2 2 2 2
-0 -1 -1 -1 -1 -2 -2 -2 -1 -1 -2 -2 -2 -1 -1 -1 -1 -1 -1 -0 -0 -0 -0 -1 -2 -1 -1 -0 -0 -1 -2 -1 -1 -1 -2 -1 -1 -1 -1 -0 -1 4 8 6 6 4 3 2 2 2 1 0 -1 -1 -0 1 1 1 2 2 2 2 2 2 1 1 1 0 0
-0 -1 -1 -1 -2 -2 -2 -2 -2 -2 -2 -2 -2 -2 -2 -2 -1 -1 -1 -0 -0 -1 -1 -2 -1 -1 -1 -1 -0 -1 -1 -1 -0 -1 -2 -2 -0 -0 -0 -0 -1 2 6 7 7 6 4 3 2 1 1 0 -1 -2 -2 -1 -1 -0 1 1 0 -0 0 0 1 2 2 1 1
-1 -1 -1 -1 -1 -2 -2 -2 -2 -2 -2 -2 -2 -2 -2 -2 -2 -2 -1 -1 -1 -1 -2 -3 -1 0 0 -0 0 -0 -1 -2 -0 0 -0 -1 0 -0 -1 -0 -2 0 4 6 7 6 5 3 2 1 1 1 0 -1 -1 -2 -2 -1 -1 -1 -1 -1 0 1 3 4 4 3 4
-1 -1 -1 -1 -2 -2 -2 -2 -2 -2 -2 -2 -2 -2 -2 -2 -2 -2 -2 -1 -1 -2 -2 -4 -1 1 2 1 1 1 0 -1 0 0 1 1 1 -0 -1 -1 -2 -1 2 5 5 6 5 3 2 1 1 1 1 1 -0 -1 -2 -2 -2 -2 -2 -1 -0 1 2 3 3 2 4
-1 -1 -1 -1 -2 -2 -2 -2 -2 -2 -2 -2 -2 -2 -2 -2 -2 -2 -2 -2 -2 -2 -2 -3 -1 1 3 2 2 2 1 -0 -0 0 0 1 0 -1 -2 -2 -2 -1 1 4 4 4 4 4 3 2 1 1 1 1 0 -1 -1 -2 -2 -2 -2 -2 -1 -1 -1 -1 -0 -0 0
-1 -1 -1 -1 -1 -2 -2 -2 -2 -2 -2 -2 -2 -2 -2 -2 -2 -2 -1 -2 -3 -3 -2 -1 -1 1 2 2 2 1 0 -1 -1 -1 -1 -0 -1 -3 -4 -4 -4 -3 0 4 3 3 3 3 3 3 2 2 1 1 1 0 -0 -1 -2 -2 -2 -2 -2 -2 -2 -2 -2 -2 -2
-1 -1 -1 -1 -1 -2 -1 -1 -1 -1 -1 -2 -1 -1 -2 -2 -2 -1 -1 -1 -2 -3 -3 -1 0 1 1 1 1 0 -1 -2 -2 -2 -1 -0 -1 -2 -4 -5 -5 -3 -0 4 3 2 2 2 3 3 3 2 2 2 2 2 1 1 1 0 0 -0 -1 -1 -1 -2 -2 -2 -2
-1 -1 -2 -2 -2 -2 -2 -1 -1 -1 -1 -2 -2 -1 -1 -1 -1 -1 -0 -0 -1 -3 -3 -2 0 2 3 2 1 0 -1 -2 -2 -2 -1 0 0 0 -1 -2 -3 -3 -1 5 5 4 2 2 2 2 2 2 2 2 2 2 2 2 2 2 2 2 2 1 1 0 -0 -0 -0
-2 -2 -2 -2 -2 -2 -2 -2 -1 -1 -2 -2 -2 -1 -1 -1 -1 -1 -1 -1 -1 -2 -3 -3 -1 1 3 3 3 2 0 -1 -2 -2 -1 0 1 1 1 -1 -1 -1 1 6 6 5 3 1 2 2 2 2 2 2 2 2 2 2 2 2 2 2 2 2 2 2 1 1 1
-2 -2 -2 -2 -2 -2 -2 -2 -2 -2 -1 -1 -1 -1 -1 -1 -1 -1 -1 -2 -2 -2 -2 -2 -1 -0 1 2 2 2 1 -1 -2 -3 -2 -1 -0 1 1 1 1 2 4 8 8 6 3 -0 -1 -0 0 1 1 1 1 1 1 1 1 1 1 1 1 1 2 2 1 1 0
-2 -2 -2 -2 -2 -2 -2 -2 -2 -1 -1 -1 -1 -1 -1 -1 -1 -0 -1 -2 -2 -2 -2 -1 -1 -1 -0 0 0 1 1 1 -1 -2 -2 -1 -1 0 1 3 4 6 8 10 9 7 4 0 -2 -2 -2 -1 -1 -1 -0 0 1 1 1 1 1 1 1 1 1 1 1 1 0
-2 -2 -2 -2 -2 -2 -2 -2 -1 -1 -1 -2 -2 -2 -2 -1 -1 -0 -0 -1 -1 -2 -2 -2 -1 -1 -1 -1 -1 0 1 2 1 1 0 0 -0 -0 0 2 5 7 10 13 11 8 4 2 -1 -3 -4 -4 -4 -4 -3 -2 -1 -0 0 1 1 1 1 1 1 1 2 2 1
-2 -2 -2 -1 -2 -2 -2 -2 -2 -2 -1 -1 -1 -1 -2 -2 -1 -1 -0 -0 -1 -1 -2 -2 -2 -1 -0 -0 -0 0 0 1 1 2 2 3 1 -0 -1 -2 1 4 9 17 20 12 2 0 -1 -3 -5 -5 -6 -6 -6 -5 -5 -4 -3 -1 -0 0 1 1 1 1 1 2 2
-2 -2 -1 -1 -1 -1 -1 -2 -2 -1 -1 -1 -2 -2 -2 -2 -1 -1 -1 -0 -0 -1 -1 -2 -2 -2 -1 -0 0 0 0 -0 -1 -0 1 3 3 1 -1 -4 -4 -1 8 22 37 24 3 -4 -3 -3 -4 -5 -5 -5 -5 -6 -7 -7 -6 -6 -5 -3 -2 0 1 1 1 2 2
-2 -1 -1 -1 -1 -1 -1 -2 -2 -2 -2 -2 -2 -2 -2 -2 -2 -1 -1 -1 -1 -1 -1 -2 -2 -3 -2 -2 -1 -0 0 -0 -1 -2 -2 -1 1 1 0 -2 -5 -4 5 29 45 32 9 -6 -4 -3 -3 -4 -4 -4 -4 -5 -6 -6 -7 -7 -7 -7 -6 -4 -2 -0 0 1 1
-1 -1 -1 -1 -1 -1 -1 -2 -2 -2 -2 -2 -2 -2 -2 -2 -2 -2 -1 -1 -1 -0 -0 -1 -3 -3 -3 -3 -2 -2 -1 -1 -1 -2 -3 -4 -2 -1 0 0 -2 -5 2 28 47 38 16 -1 -3 -3 -2 -3 -4 -5 -5 -5 -4 -4 -5 -5 -6 -7 -8 -8 -7 -5 -3 -2 -1
-1 -1 -1 -1 -1 -1 -1 -1 -2 -2 -2 -2 -2 -2 -2 -2 -2 -2 -1 -1 -0 -0 -1 -2 -3 -4 -4 -4 -4 -4 -4 -3 -3 -2 -3 -3 -3 -2 -1 0 1 -1 1 11 47 48 29 8 0 -2 -2 -3 -4 -4 -5 -5 -4 -4 -4 -5 -5 -5 -6 -7 -8 -7 -6 -5 -3
-1 -1 -1 -1 -1 -1 -1 -1 -1 -2 -2 -2 -2 -2 -2 -2 -1 -1 -1 -1 -1 -1 -2 -3 -3 -4 -4 -4 -4 -4 -5 -5 -4 -4 -3 -3 -3 -2 -2 -1 -0 1 0 -3 29 46 44 20 6 0 -1 -3 -4 -4 -4 -4 -4 -4 -5 -5 -5 -4 -4 -5 -5 -6 -6 -6 -5
-1 -1 -1 -1 -1 -1 -1 -1 -1 -2 -2 -2 -2 -2 -2 -1 -1 -1 -1 -1 -1 -1 -2 -3 -3 -3 -3 -3 -4 -4 -5 -5 -5 -5 -5 -5 -4 -4 -4 -3 -3 -1 -1 -3 5 29 46 35 12 3 2 -0 -3 -5 -5 -4 -4 -4 -4 -4 -4 -3 -3 -3 -4 -4 -5 -5 -5
-1 -1 -1 -1 -1 -1 -1 -1 -1 -1 -2 -2 -2 -2 -2 -1 -1 -1 -1 -1 -1 -1 -1 -2 -2 -1 -1 -2 -3 -4 -4 -5 -5 -5 -6 -6 -6 -6 -5 -5 -4 -3 -3 -4 -5 13 35 44 19 8 5 4 -1 -4 -5 -5 -4 -4 -4 -3 -3 -2 -2 -2 -2 -3 -3 -4 -4
-1 -1 -1 -1 -1 -1 -1 -1 -1 -1 -1 -2 -2 -2 -2 -1 -1 -1 -1 -1 -1 -1 -1 -1 -1 -1 -1 -1 -2 -3 -4 -4 -4 -5 -5 -6 -6 -6 -5 -4 -4 -3 -3 -4 -6 4 22 47 27 13 6 7 2 -2 -5 -6 -5 -4 -3 -2 -2 -2 -2 -2 -3 -3 -3 -3 -3
-1 -1 -1 -1 -1 -1 -1 -1 -1 -1 -1 -1 -1 -2 -2 -2 -1 -1 -1 -0 -0 0 -0 -1 -1 -2 -3 -3 -3 -3 -4 -4 -4 -4 -4 -4 -4 -4 -4 -4 -4 -3 -4 -4 -5 -2 12 46 35 18 5 7 5 1 -3 -5 -5 -5 -3 -2 -1 -1 -1 -2 -3 -3 -3 -2 -2
-1 -1 -1 -1 -1 -1 -1 -1 -1 -1 -1 -1 -1 -1 -2 -2 -2 -1 -0 0 0 0 -0 -1 -1 -2 -3 -3 -4 -4 -4 -4 -3 -3 -3 -3 -3 -3 -4 -4 -4 -4 -3 -3 -3 -4 6 36 38 22 5 4 4 2 -1 -3 -5 -5 -5 -3 -1 -0 0 -0 -1 -2 -2 -2 -1
-1 -1 -1 -1 -1 -1 -1 -1 -1 -1 -1 -1 -1 -1 -1 -2 -2 -2 -1 -0 0 0 0 0 0 -0 -1 -1 -2 -3 -4 -5 -4 -3 -3 -3 -4 -4 -4 -4 -4 -4 -3 -2 -1 -2 3 24 36 25 8 2 2 1 1 -2 -4 -6 -6 -4 -2 -1 -0 0 -0 -1 -1 -1 -1
-1 -1 -1 -1 -1 -1 -1 -1 -1 -1 -1 -1 -1 -1 -1 -1 -2 -2 -2 -1 -0 0 1 1 1 1 1 1 1 -1 -2 -4 -4 -4 -4 -4 -5 -5 -5 -5 -5 -4 -2 -1 -1 -2 1 12 31 32 20 5 1 0 1 0 -4 -6 -7 -5 -4 -3 -2 -1 -1 -1 -1 -0 -1
-2 -1 -1 -1 -1 -1 -1 -1 -1 -1 -1 -1 -1 -2 -2 -1 -1 -1 -1 -1 -1 0 1 1 1 1 1 1 1 1 -0 -2 -4 -4 -4 -4 -5 -6 -7 -7 -6 -5 -4 -2 -2 -2 -1 2 23 39 39 12 3 -0 0 1 -2 -6 -8 -7 -5 -4 -3 -3 -2 -2 -1 0 -1
-2 -2 -2 -1 -1 -1 -1 -1 -1 -1 -1 -1 -1 -2 -2 -2 -1 -1 -1 -2 -1 -1 -0 1 0 0 0 0 1 1 1 0 -2 -3 -4 -4 -4 -6 -7 -9 -8 -6 -5 -4 -3 -2 -1 -0 13 35 45 19 5 -1 -1 1 -3 -7 -9 -8 -5 -3 -2 -3 -3 -2 -1 0 -0
-2 -2 -2 -2 -1 -1 -1 -0 -1 -1 -1 -1 -1 -2 -2 -2 -2 -2 -1 -2 -2 -2 -1 -0 -0 -0 -1 -1 -0 1 2 2 1 -1 -2 -3 -3 -4 -6 -9 -9 -8 -6 -5 -4 -3 -1 -0 6 26 39 23 9 1 -1 2 -4 -9 -11 -8 -5 -3 -1 -2 -3 -4 -2 0 0
-2 -1 -1 -1 -1 -1 -1 -0 -0 -0 -1 -2 -2 -2 -2 -2 -2 -2 -1 -1 -1 -1 -1 -1 -0 -0 -1 -1 -1 0 2 3 3 1 -0 -2 -2 -3 -4 -7 -9 -9 -8 -6 -6 -5 -4 -2 0 18 34 31 15 5 1 2 -6 -11 -11 -8 -5 -3 -2 -2 -3 -4 -4 -2 -1
-2 -2 -2 -1 -1 -2 -1 -1 -0 -0 -1 -1 -2 -2 -2 -2 -2 -1 -1 -0 -0 -0 -1 -0 -0 -0 -0 -0 -0 1 2 3 3 3 2 0 -1 -1 -2 -5 -7 -9 -9 -9 -8 -8 -6 -5 -5 8 29 54 25 10 3 -1 -10 -13 -12 -6 -4 -2 -2 -2 -3 -4 -4 -4 -5
-2 -2 -2 -2 -1 -2 -2 -1 -1 0 0 0 -1 -2 -2 -2 -2 -1 -0 0 1 0 0 -0 0 1 1 1 2 2 2 3 3 3 3 2 1 0 -1 -3 -6 -8 -9 -10 -10 -9 -8 -7 -9 0 26 73 30 8 -2 -6 -13 -13 -10 -5 -1 0 -0 -3 -5 -6 -5 -6 -8
Height
1547 1545 1543 1542 1540 1538 1536 1535 1533 1532 1530 1529 1527 1526 1525 1523 1522 1521 1519 1517 1516 1513 1512 1509 1507 1505 1503 1501 1498 1496 1494 1491 1488 1485 1482 1479 1476 1474 1471 1469 1467 1464 1462 1460 1458 1457 1455 1454 1453 1452 1451 1450 1449 1448 1447 1447 1446 1445 1444 1443 1442 1442 1441 1440 1439 1438 1437 1437 1436
1547 1545 1543 1541 1539 1537 1536 1534 1533 1532 1530 1529 1527 1526 1525 1523 1522 1521 1519 1517 1516 1514 1511 1509 1507 1505 1503 1500 1498 1496 1493 1490 1487 1484 1481 1478 1476 1473 1471 1468 1466 1463 1461 1459 1457 1455 1454 1452 1452 1450 1449 1448 1447 1447 1446 1445 1444 1443 1442 1442 1441 1440 1439 1438 1437 1437 1436 1435 1435
1547 1544 1542 1540 1538 1537 1535 1534 1532 1531 1530 1529 1527 1526 1525 1523 1522 1521 1519 1517 1516 1514 1512 1509 1507 1505 1502 1500 1498 1496 1493 1489 1486 1483 1480 1478 1476 1473 1470 1467 1465 1462 1460 1458 1456 1454 1452 1451 1450 1448 1447 1447 1446 1445 1444 1443 1443 1442 1441 1440 1440 1439 1438 1437 1436 1435 1435 1434 1433
1546 1544 1542 1540 1538 1537 1535 1534 1532 1531 1530 1528 1527 1526 1525 1523 1522 1521 1519 1517 1516 1513 1511 1509 1507 1504 1502 1501 1498 1495 1492 1489 1486 1483 1481 1478 1476 1473 1470 1467 1464 1462 1459 1457 1455 1453 1451 1450 1448 1447 1446 1445 1444 1443 1443 1442 1442 1441 1440 1440 1439 1438 1437 1436 1435 1434 1434 1433 1432
1545 1543 1542 1540 1538 1537 1535 1534 1532 1531 1530 1528 1527 1526 1525 1523 1522 1520 1519 1517 1515 1513 1511 1509 1507 1505 1503 1501 1498 1495 1491 1488 1486 1483 1481 1478 1476 1473 1470 1467 1464 1462 1459 1457 1454 1452 1450 1448 1447 1445 1444 1444 1443 1442 1442 1441 1441 1440 1440 1439 1438 1437 1436 1435 1434 1434 1433 1432 1432
1544 1542 1541 1539 1538 1536 1535 1534 1532 1531 1530 1528 1527 1526 1524 1523 1522 1520 1518 1517 1515 1513 1511 1509 1507 1505 1503 1500 1497 1494 1491 1488 1486 1483 1481 1479 1476 1473 1470 1467 1464 1462 1459 1457 1454 1452 1449 1447 1446 1445 1444 1443 1442 1442 1441 1441 1440 1439 1439 1438 1437 1437 1436 1435 1434 1433 1432 1432 1431
1544 1542 1541 1539 1537 1536 1535 1533 1532 1531 1529 1528 1527 1526 1524 1523 1521 1520 1518 1517 1515 1512 1511 1509 1507 1505 1502 1500 1497 1494 1491 1488 1486 1484 1482 1479 1476 1473 1471 1468 1465 1462 1460 1457 1454 1452 1449 1447 1446 1444 1443 1443 1442 1441 1441 1440 1440 1439 1438 1437 1437 1436 1435 1434 1434 1433 1432 1432 1431
1544 1542 1541 1539 1537 1536 1535 1533 1532 1530 1529 1528 1527 1525 1524 1522 1521 1519 1518 1516 1514 1512 1511 1509 1507 1504 1502 1500 1497 1494 1492 1489 1487 1484 1482 1479 1476 1473 1471 1468 1465 1463 1461 1458 1455 1452 1450 1448 1446 1445 1444 1443 1442 1441 1441 1440 1440 1439 1438 1437 1437 1436 1435 1434 1434 1433 1432 1432 1431
1543 1542 1540 1538 1537 1536 1534 1533 1532 1530 1529 1528 1527 1525 1524 1522 1521 1519 1517 1515 1514 1512 1511 1509 1507 1504 1502 1500 1497 1494 1492 1489 1487 1484 1482 1480 1477 1474 1471 1468 1466 1464 1462 1459 1456 1453 1451 1449 1447 1446 1445 1443 1442 1442 1441 1440 1440 1439 1438 1437 1437 1436 1435 1435 1434 1433 1432 1432 1431
1543 1541 1539 1538 1537 1535 1534 1532 1531 1530 1529 1527 1526 1525 1523 1522 1520 1519 1517 1515 1513 1512 1510 1508 1506 1504 1502 1499 1497 1495 1492 1490 1487 1485 1482 1480 1477 1475 1472 1469 1467 1465 1463 1461 1458 1455 1452 1450 1449 1447 1446 1445 1443 1442 1442 1441 1440 1439 1439 1438 1437 1437 1436 1435 1435 1434 1433 1432 1432
1543 1541 1539 1537 1536 1535 1533 1532 1531 1529 1528 1527 1526 1524 1523 1521 1520 1518 1517 1515 1513 1512 1510 1508 1506 1503 1501 1499 1497 1495 1493 1491 1488 1486 1483 1481 1478 1475 1473 1470 1468 1466 1465 1462 1460 1457 1455 1452 1451 1449 1447 1446 1445 1443 1442 1442 1441 1440 1439 1439 1438 1437 1437 1436 1435 1435 1434 1433 1432
1542 1541 1539 1537 1536 1534 1533 1532 1530 1529 1528 1526 1525 1524 1522 1521 1519 1517 1516 1514 1512 1511 1509 1507 1506 1503 1501 1499 1497 1495 1493 1491 1489 1486 1484 1481 1479 1476 1473 1471 1468 1467 1466 1464 1462 1459 1457 1455 1453 1451 1449 1448 1446 1445 1444 1443 1442 1441 1441 1440 1439 1438 1437 1437 1436 1435 1434 1434 1433
1542 1540 1538 1537 1535 1534 1532 1531 1530 1528 1527 1526 1524 1523 1522 1520 1519 1517 1515 1513 1512 1510 1508 1507 1505 1503 1501 1499 1497 1496 1493 1491 1489 1487 1484 1482 1479 1477 1474 1471 1469 1468 1467 1465 1463 1461 1459 1457 1455 1453 1451 1450 1448 1447 1446 1445 1444 1443 1442 1441 1440 1439 1438 1437 1437 1436 1435 1434 1433
1542 1540 1538 1537 1535 1533 1532 1531 1529 1528 1527 1525 1524 1522 1521 1520 1518 1516 1515 1513 1511 1509 1507 1506 1505 1503 1501 1499 1497 1496 1494 1492 1489 1487 1485 1482 1480 1477 1474 1472 1470 1468 1467 1466 1464 1462 1461 1459 1457 1455 1453 1452 1450 1449 1448 1447 1446 1445 1443 1442 1442 1441 1439 1438 1437 1437 1435 1434 1433
1541 1540 1538 1536 1535 1533 1532 1530 1529 1527 1526 1525 1523 1522 1521 1519 1517 1516 1514 1512 1511 1509 1507 1506 1504 1502 1501 1499 1497 1496 1494 1492 1490 1487 1485 1483 1480 1477 1475 1472 1470 1469 1468 1467 1465 1463 1462 1460 1458 1457 1455 1453 1452 1451 1449 1448 1447 1446 1445 1443 1442 1441 1440 1439 1438 1437 1436 1435 1434
1541 1539 1537 1536 1534 1533 1531 1530 1528 1527 1526 1525 1523 1522 1520 1519 1517 1516 1514 1512 1510 1508 1507 1505 1503 1502 1500 1499 1497 1496 1494 1492 1490 1487 1485 1483 1481 1478 1476 1473 1471 1469 1468 1467 1466 1464 1462 1461 1459 1457 1456 1454 1453 1451 1450 1449 1447 1446 1445 1444 1443 1442 1441 1439 1438 1437 1436 1435 1434
1541 1539 1537 1536 1534 1532 1531 1530 1528 1527 1526 1524 1523 1521 1520 1518 1517 1515 1513 1512 1509 1507 1506 1504 1503 1502 1500 1499 1497 1495 1493 1492 1490 1488 1486 1483 1481 1479 1477 1475 1472 1470 1469 1468 1467 1465 1463 1461 1460 1458 1457 1455 1453 1452 1451 1449 1448 1447 1446 1444 1443 1442 1441 1439 1438 1437 1436 1435 1433
1540 1539 1537 1535 1534 1532 1531 1529 1528 1526 1525 1524 1522 1521 1520 1518 1517 1515 1513 1512 1509 1507 1505 1504 1502 1501 1500 1498 1497 1495 1493 1492 1490 1488 1486 1484 1482 1480 1478 1476 1473 1471 1470 1469 1468 1466 1463 1462 1460 1458 1457 1456 1454 1453 1451 1450 1449 1447 1446 1445 1443 1442 1441 1439 1438 1437 1436 1435 1433
1540 1538 1537 1535 1533 1532 1530 1529 1527 1526 1525 1523 1522 1521 1519 1518 1516 1515 1513 1511 1509 1507 1505 1503 1502 1501 1500 1498 1497 1495 1493 1492 1490 1488 1487 1484 1482 1481 1478 1477 1474 1472 1471 1470 1469 1467 1465 1462 1460 1459 1457 1456 1454 1453 1452 1450 1449 1448 1447 1445 1444 1442 1441 1440 1438 1437 1436 1435 1433
1540 1538 1536 1534 1533 1531 1530 1528 1527 1525 1524 1523 1522 1520 1519 1517 1516 1514 1512 1511 1508 1507 1505 1503 1502 1501 1499 1498 1497 1495 1493 1492 1490 1488 1487 1485 1483 1481 1479 1477 1475 1472 1471 1470 1469 1467 1465 1463 1461 1459 1457 1456 1454 1453 1452 1450 1449 1448 1447 1445 1444 1443 1441 1440 1438 1437 1436 1435 1433
1539 1537 1536 1534 1532 1531 1529 1528 1526 1525 1524 1522 1521 1520 1518 1517 1516 1514 1512 1510 1508 1507 1505 1503 1502 1501 1499 1497 1496 1494 1493 1492 1490 1488 1486 1484 1483 1481 1479 1477 1475 1473 1472 1470 1469 1468 1466 1464 1462 1460 1458 1456 1455 1453 1451 1450 1449 1447 1446 1445 1444 1442 1441 1440 1438 1437 1435 1434 1433
1539 1537 1536 1534 1532 1531 1529 1527 1526 1525 1523 1522 1521 1519 1518 1517 1515 1514 1512 1510 1508 1507 1505 1503 1502 1500 1499 1497 1496 1494 1493 1491 1490 1488 1486 1484 1483 1481 1479 1477 1475 1473 1472 1470 1469 1468 1466 1464 1462 1460 1459 1457 1455 1453 1452 1450 1448 1447 1446 1444 1443 1442 1441 1439 1438 1437 1435 1433 1432
1538 1537 1535 1534 1532 1530 1529 1527 1526 1524 1523 1521 1520 1519 1517 1516 1515 1513 1512 1510 1508 1506 1505 1503 1502 1500 1499 1497 1496 1494 1492 1491 1489 1488 1486 1484 1482 1481 1479 1477 1475 1473 1472 1470 1469 1468 1466 1464 1462 1461 1459 1457 1456 1454 1452 1451 1449 1447 1446 1444 1443 1441 1440 1438 1437 1436 1434 1432 1431
1538 1537 1535 1533 1532 1530 1528 1527 1525 1524 1522 1521 1519 1518 1517 1515 1514 1512 1511 1510 1508 1506 1505 1503 1502 1500 1498 1497 1496 1494 1492 1491 1489 1487 1486 1484 1482 1480 1479 1477 1475 1473 1471 1470 1470 1468 1466 1464 1462 1461 1459 1457 1456 1454 1453 1451 1449 1448 1446 1444 1442 1441 1439 1438 1437 1435 1433 1432 1430
1538 1536 1535 1533 1532 1530 1528 1527 1525 1523 1522 1520 1519 1517 1516 1515 1513 1512 1511 1509 1507 1506 1504 1503 1501 1500 1498 1497 1495 1494 1492 1490 1489 1487 1485 1483 1482 1480 1478 1477 1475 1473 1471 1471 1471 1469 1466 1464 1462 1461 1459 1457 1456 1454 1453 1451 1449 1448 1446 1444 1442 1441 1439 1437 1436 1434 1433 1431 1429
1537 1536 1535 1533 1531 1530 1528 1526 1524 1523 1521 1520 1518 1517 1515 1514 1513 1511 1510 1509 1507 1506 1504 1503 1501 1500 1498 1497 1495 1493 1492 1490 1489 1487 1485 1483 1482 1480 1478 1477 1475 1473 1472 1471 1472 1469 1466 1464 1462 1461 1459 1457 1456 1454 1452 1451 1449 1448 1446 1444 1442 1441 1439 1437 1436 1434 1432 1431 1429
1537 1536 1534 1533 1531 1529 1528 1526 1524 1523 1521 1519 1518 1516 1515 1513 1512 1511 1509 1508 1507 1505 1504 1502 1501 1499 1498 1497 1495 1493 1492 1490 1488 1487 1485 1483 1482 1480 1478 1476 1475 1473 1472 1470 1472 1470 1467 1464 1462 1460 1459 1457 1456 1454 1452 1451 1449 1447 1446 1444 1442 1440 1439 1437 1435 1433 1432 1430 1428
1537 1535 1534 1532 1531 1529 1527 1526 1524 1522 1521 1519 1517 1516 1514 1513 1512 1510 1509 1508 1506 1505 1503 1502 1501 1499 1498 1497 1495 1493 1492 1490 1489 1487 1485 1484 1482 1480 1478 1477 1475 1473 1472 1470 1470 1470 1468 1464 1462 1460 1458 1457 1455 1454 1452 1451 1449 1447 1445 1444 1442 1440 1438 1437 1435 1433 1431 1429 1427
1536 1535 1533 1532 1530 1529 1527 1525 1524 1522 1520 1518 1517 1515 1514 1512 1511 1510 1508 1507 1506 1504 1503 1502 1500 1499 1497 1496 1495 1493 1492 1490 1489 1487 1485 1484 1482 1480 1479 1477 1475 1473 1472 1470 1469 1469 1468 1465 1462 1460 1458 1457 1455 1453 1452 1451 1449 1447 1445 1443 1442 1440 1438 1436 1434 1432 1430 1428 1427
1536 1534 1533 1532 1530 1528 1527 1525 1523 1522 1520 1518 1517 1515 1513 1512 1511 1509 1508 1506 1505 1504 1502 1501 1500 1499 1497 1496 1494 1493 1492 1490 1489 1487 1485 1484 1482 1480 1479 1477 1475 1473 1472 1470 1469 1468 1467 1465 1462 1460 1458 1456 1455 1453 1452 1450 1449 1447 1445 1443 1442 1440 1438 1436 1434 1432 1430 1428 1426
1535 1534 1532 1531 1530 1528 1526 1525 1523 1522 1520 1518 1516 1515 1513 1512 1510 1508 1507 1506 1505 1503 1502 1501 1500 1498 1497 1496 1494 1493 1491 1490 1488 1487 1485 1483 1482 1480 1479 1477 1475 1473 1472 1470 1469 1467 1467 1466 1463 1460 1457 1456 1454 1453 1452 1450 1449 1447 1446 1444 1442 1440 1438 1436 1434 1432 1430 1428 1426
1535 1533 1532 1531 1529 1528 1526 1524 1523 1521 1520 1518 1516 1514 1513 1511 1510 1508 1507 1505 1504 1503 1501 1500 1499 1497 1496 1495 1494 1492 1491 1489 1488 1486 1485 1483 1482 1480 1478 1477 1475 1473 1472 1470 1468 1467 1467 1466 1463 1460 1457 1456 1454 1453 1451 1450 1448 1447 1446 1444 1442 1440 1438 1436 1434 1432 1429 1427 1426
1535 1533 1532 1530 1529 1527 1526 1524 1522 1521 1519 1517 1516 1514 1512 1511 1509 1508 1506 1505 1503 1502 1501 1499 1498 1497 1495 1494 1493 1492 1490 1489 1487 1486 1485 1483 1481 1480 1478 1476 1475 1473 1471 1470 1468 1467 1466 1465 1463 1460 1457 1456 1454 1452 1451 1449 1448 1447 1445 1444 1442 1440 1438 1436 1434 1432 1429 1427 1425
1534 1532 1531 1530 1528 1527 1525 1524 1522 1521 1519 1517 1516 1514 1512 1511 1509 1507 1506 1504 1503 1502 1500 1499 1497 1496 1495 1494 1492 1491 1490 1488 1487 1486 1484 1482 1481 1479 1477 1476 1474 1472 1471 1469 1468 1466 1465 1464 1462 1460 1457 1455 1454 1452 1450 1449 1447 1446 1445 1443 1442 1440 1438 1436 1434 1431 1429 1427 1425
1533 1532 1531 1529 1528 1526 1525 1523 1522 1520 1519 1517 1516 1514 1512 1510 1509 1507 1505 1504 1502 1501 1500 1498 1497 1496 1495 1493 1492 1491 1489 1487 1486 1485 1483 1482 1480 1478 1477 1475 1473 1472 1470 1469 1467 1466 1464 1463 1462 1460 1457 1455 1453 1452 1450 1448 1447 1446 1444 1443 1441 1439 1437 1436 1433 1431 1429 1427 1424
1532 1531 1530 1529 1527 1526 1524 1523 1521 1520 1518 1517 1515 1513 1512 1510 1508 1507 1505 1503 1502 1500 1499 1498 1497 1495 1494 1492 1491 1490 1489 1487 1486 1484 1483 1481 1480 1478 1476 1474 1472 1471 1469 1468 1466 1464 1463 1462 1462 1461 1458 1455 1452 1451 1449 1448 1446 1445 1444 1442 1441 1439 1437 1435 1433 1431 1429 1426 1424
1532 1531 1529 1528 1527 1525 1524 1522 1521 1519 1518 1516 1515 1513 1512 1510 1508 1507 1505 1503 1501 1500 1498 1497 1496 1494 1493 1492 1490 1489 1488 1487 1485 1483 1482 1481 1479 1477 1475 1473 1472 1470 1468 1467 1465 1463 1462 1460 1460 1459 1457 1454 1452 1450 1449 1447 1446 1445 1443 1442 1441 1439 1437 1435 1433 1431 1428 1426 1424
1532 1530 1529 1527 1526 1525 1523 1522 1521 1519 1517 1516 1515 1513 1512 1510 1508 1506 1504 1502 1501 1499 1498 1496 1495 1494 1492 1491 1490 1488 1487 1486 1485 1483 1482 1480 1478 1477 1475 1473 1471 1469 1468 1466 1464 1462 1461 1459 1458 1457 1456 1454 1452 1450 1448 1447 1446 1445 1443 1442 1440 1438 1437 1435 1432 1430 1428 1426 1424
1531 1530 1528 1527 1526 1524 1523 1522 1521 1519 1517 1516 1514 1513 1511 1509 1507 1506 1504 1503 1501 1499 1497 1496 1495 1493 1492 1490 1489 1488 1487 1486 1484 1483 1481 1479 1478 1477 1475 1473 1471 1469 1467 1466 1464 1462 1460 1458 1457 1456 1455 1453 1452 1449 1448 1447 1446 1445 1443 1442 1440 1438 1436 1434 1432 1430 1428 1426 1423
1530 1529 1528 1527 1525 1524 1523 1522 1520 1519 1517 1516 1514 1512 1511 1509 1507 1506 1505 1503 1501 1499 1498 1496 1495 1493 1492 1490 1489 1487 1486 1485 1484 1482 1481 1479 1477 1476 1474 1472 1471 1469 1467 1466 1464 1462 1460 1458 1456 1455 1454 1454 1451 1449 1447 1447 1446 1445 1443 1441 1439 1437 1436 1434 1432 1430 1427 1425 1423
1530 1529 1527 1527 1525 1524 1522 1521 1520 1519 1517 1516 1514 1512 1511 1509 1508 1506 1505 1503 1502 1500 1498 1497 1495 1493 1492 1491 1489 1487 1486 1485 1483 1482 1480 1479 1477 1475 1474 1472 1470 1469 1467 1466 1464 1462 1460 1458 1456 1454 1454 1455 1451 1448 1447 1447 1446 1444 1443 1441 1439 1437 1435 1433 1431 1429 1427 1424 1422